RH
71 63 61 63 67 61 56 49 38 39 47 40 45 63 69 78 87 89 83 97 92 96
83 79 74 71 73 72 65 54 45 45 50 49 51 61 72 72 80 74 98 98 93 94
92 92 87 83 78 79 74 61 48 51 58 69 66 68 77 76 70 87 97 93 93 98
80 84 86 88 86 82 82 70 63 65 69 87 83 94 84 79 80 91 89 89 96 97
87 92 94 90 93 89 88 81 86 82 77 78 95 90 94 97 98 95 92 89 94 81
96 98 99 96 95 95 91 87 86 84 83 78 79 93 94 91 93 89 87 80 74 71
97 98 98 98 94 92 91 92 90 88 83 77 74 73 74 73 73 73 69 67 63 59
78 82 94 98 97 92 85 81 84 84 84 79 74 71 70 66 63 61 63 59 59 73
35 45 53 61 67 68 77 78 69 47 56 61 74 77 73 67 57 58 58 62 74 75
20 25 32 39 46 41 39 39 51 41 43 54 51 45 55 52 50 46 44 49 52 45
19 14 18 23 23 18 24 27 29 39 35 26 22 26 24 23 25 27 27 29 30 29
21 18 14 11 10 9 9 9 11 13 15 16 18 21 23 22 21 21 22 23 25 27
21 20 18 14 12 11 11 11 13 14 16 18 21 22 21 21 23 24 24 25 26 27
22 19 20 19 16 15 14 15 16 17 21 25 27 26 27 28 31 30 29 26 25 25